DateTimeUTC,F1_A11,F1_S11,BsB_S11,BsG_S11,BsR_S11,BbsB_S11,BbsG_S11,BbsR_S11,BaB_A11,BaG_A11,BaR_A11,T_S11,U_S11,P_S11,T1_A11
2020-02-02T00:00:00Z,00000380,21000600,,,,,,,,,,22.9,00.0,0608.8,30.9
2020-02-02T00:01:00Z,00000380,21000600,,,,,,,,,,22.9,00.0,0608.8,30.9
2020-02-02T00:02:00Z,00000380,21000600,,,,,,,,,,22.9,00.0,0608.9,30.9
2020-02-02T00:03:00Z,00000380,61000600,,,,,,,,,,22.9,00.0,0608.9,30.9
2020-02-02T00:04:00Z,00000380,41000600,0000.54,0000.04,0000.14,-000.23,0000.32,-000.09,0000.12,-000.13,0000.06,22.7,00.0,0609.7,30.8
2020-02-02T00:05:00Z,00000380,01000600,-000.56,0000.58,0000.04,-000.46,-000.10,-000.26,0000.17,0000.42,0000.20,22.7,00.0,0609.8,30.8
2020-02-02T00:06:00Z,00000380,01000600,0000.45,-000.01,0000.60,0000.73,0000.45,0000.12,-000.19,-000.08,-000.35,22.7,00.0,0609.8,30.9
2020-02-02T00:07:00Z,00000380,01000600,0001.09,0000.14,0000.10,0000.73,0000.33,-000.03,0000.28,0000.07,0000.26,22.7,00.0,0609.8,30.9
2020-02-02T00:08:00Z,00000380,01000600,0000.33,-000.04,-000.17,-000.41,-000.07,-000.28,-000.13,0000.08,0000.04,22.7,00.0,0609.8,30.9
2020-02-02T00:09:00Z,00000380,01000600,0000.58,0000.02,0000.35,0001.32,0000.41,-000.28,0000.00,-000.09,-000.02,22.7,00.0,0609.8,30.9
2020-02-02T00:10:00Z,00000380,01000600,-000.47,0000.06,-000.01,-000.24,0000.09,0000.01,-000.14,-000.07,0000.02,22.7,00.0,0609.7,30.9
2020-02-02T00:11:00Z,00000380,01000600,0000.40,-000.03,0000.27,-000.62,-000.16,-000.22,0000.23,0000.27,0000.02,22.7,00.0,0609.7,30.9
2020-02-02T00:12:00Z,00000380,01000600,0000.82,0000.38,-000.16,0000.53,0001.00,-000.06,-000.04,-000.04,-000.03,22.7,00.0,0609.7,30.9
2020-02-02T00:13:00Z,00000380,01000600,0000.93,-000.07,0000.40,0000.32,0000.12,0000.45,-000.07,0000.11,0000.04,22.7,00.0,0609.7,30.9
2020-02-02T00:14:00Z,00000380,01000600,-000.00,-000.16,0000.54,0000.72,0000.25,0000.08,0000.15,0000.08,0000.15,22.7,00.0,0609.7,30.9
2020-02-02T00:15:00Z,00000380,01000600,0000.71,-000.08,0000.43,-000.11,0000.28,-000.15,-000.05,-000.18,-000.04,22.7,00.0,0609.7,30.9
2020-02-02T00:16:00Z,00000380,01000600,0001.03,-000.45,0000.38,0000.37,0000.14,0000.16,0000.12,-000.02,0000.07,22.7,00.0,0609.7,30.9
2020-02-02T00:17:00Z,00000380,01000600,0000.70,0000.07,-000.08,0000.37,0000.07,-000.04,-000.17,0000.08,-000.14,22.7,00.0,0609.7,30.9
2020-02-02T00:18:00Z,00000380,01000600,0000.55,0000.16,0000.04,0000.04,-000.43,0000.05,0000.14,-000.14,0000.06,22.7,00.0,0609.8,30.9
2020-02-02T00:19:00Z,00000380,01000600,0000.84,-000.09,0000.23,0000.44,0000.16,-000.21,-000.19,-000.01,-000.06,22.7,00.0,0609.8,30.9
2020-02-02T00:20:00Z,00000380,01000600,0000.74,-000.13,-000.17,-000.24,-000.05,0000.09,0000.05,0000.17,-000.07,22.7,00.0,0609.8,30.9
2020-02-02T00:21:00Z,00000380,01000600,0000.28,0000.22,0001.13,0000.70,0000.38,0000.29,-000.09,-000.11,0000.05,22.7,00.0,0609.8,30.9
2020-02-02T00:22:00Z,00000380,01000600,0000.23,0000.02,0000.16,-000.23,0000.34,-000.28,0000.21,-000.01,0000.01,22.7,00.0,0609.8,30.9
2020-02-02T00:23:00Z,00000380,01000600,0001.02,0000.29,0000.49,-000.59,0000.41,0000.07,-000.20,-000.00,0000.06,22.7,00.0,0609.8,30.9
2020-02-02T00:24:00Z,00000380,01000600,0000.06,0000.04,0000.20,-000.26,0000.38,-000.03,0000.08,0000.12,0000.03,22.6,00.0,0609.7,30.9
2020-02-02T00:25:00Z,00000380,01000600,0000.40,-000.05,0000.16,-000.40,0000.29,-000.22,-000.02,-000.01,-000.10,22.6,00.0,0609.8,30.9
2020-02-02T00:26:00Z,00000380,01000600,0000.61,-000.15,0000.07,0000.27,0000.44,-000.41,0000.01,-000.13,-000.02,22.6,00.0,0609.8,30.9
2020-02-02T00:27:00Z,00000380,01000600,0000.22,-000.07,0000.54,-000.09,-000.19,0000.01,-000.06,0000.20,0000.03,22.6,00.0,0609.8,30.9
2020-02-02T00:28:00Z,00000380,01000600,0000.54,-000.20,-000.07,-000.18,0000.50,-000.20,0000.13,0000.06,-000.07,22.6,00.0,0609.7,30.9
2020-02-02T00:29:00Z,00000380,01000600,0000.17,-000.63,0000.64,-000.43,-000.25,0000.02,-000.07,-000.27,0000.20,22.6,00.0,0609.8,30.9
2020-02-02T00:30:00Z,00000380,01000600,0000.46,0000.10,0000.23,0000.32,0000.28,0000.15,0000.01,-000.02,-000.20,22.6,00.0,0609.7,30.9
2020-02-02T00:31:00Z,00000380,01000600,0000.78,-000.11,0000.10,0000.40,0000.09,-000.14,0000.02,0000.23,0000.16,22.6,00.0,0609.7,30.9
2020-02-02T00:32:00Z,00000380,01000600,0000.30,0000.13,-000.28,-000.45,0000.32,-000.13,-000.15,-000.45,-000.12,22.5,00.0,0609.7,30.9
2020-02-02T00:33:00Z,00000380,01000600,0000.35,0000.23,-000.22,0000.03,0000.10,0000.28,0000.14,0000.08,-000.07,22.5,00.0,0609.7,30.8
2020-02-02T00:34:00Z,00000380,01000600,0000.16,0000.26,-000.27,-000.13,0000.17,-000.39,0000.03,-000.02,0000.24,22.5,00.0,0609.7,30.8
2020-02-02T00:35:00Z,00000380,01000600,0000.68,0000.02,0000.15,0000.55,-000.03,-000.01,0000.09,0000.18,-000.04,22.5,00.0,0609.7,30.8
2020-02-02T00:36:00Z,00000380,01000600,0000.08,0000.16,-000.04,-000.33,0000.51,-000.07,0000.14,0000.18,0000.15,22.6,00.0,0609.8,30.8
2020-02-02T00:37:00Z,00000380,01000600,0000.32,-000.10,-000.18,-000.62,0000.09,-000.88,0000.05,0000.30,0000.00,22.6,00.0,0609.8,30.8
2020-02-02T00:38:00Z,00000380,01000600,0000.62,-000.35,-000.05,0000.22,-000.10,-000.22,-000.07,-000.24,0000.03,22.6,00.0,0609.8,30.8
2020-02-02T00:39:00Z,00000380,01000600,-000.42,-000.27,0000.11,0000.22,0000.45,0000.09,0000.04,0000.25,-000.00,22.6,00.0,0609.8,30.8
2020-02-02T00:40:00Z,00000380,01000600,-000.41,0000.32,-000.05,0000.15,0000.36,-000.47,0000.08,-000.07,-000.01,22.6,00.0,0609.7,30.9
2020-02-02T00:41:00Z,00000380,01000600,-000.18,0000.60,0000.34,-000.35,0000.37,0000.10,-000.00,-000.00,0000.14,22.6,00.0,0609.7,30.9
2020-02-02T00:42:00Z,00000380,01000600,0000.23,0000.02,-000.00,-000.42,0000.21,-000.20,0000.01,0000.16,-000.17,22.6,00.0,0609.7,30.9
2020-02-02T00:43:00Z,00000380,01000600,-000.59,-000.12,-000.32,-000.81,-000.24,-000.18,0000.04,-000.06,0000.07,22.6,00.0,0609.7,30.9
2020-02-02T00:44:00Z,00000380,01000600,0000.07,-000.33,0000.06,0000.03,0000.37,-000.13,-000.02,0000.07,-000.01,22.6,00.0,0609.7,30.9
2020-02-02T00:45:00Z,00000380,01000600,-000.09,-000.59,0000.40,0000.17,0000.32,0000.27,-000.00,-000.01,0000.04,22.6,00.0,0609.7,30.9
2020-02-02T00:46:00Z,00000380,01000600,0000.16,-000.05,0000.09,0000.84,-000.43,-000.05,0000.13,-000.16,0000.04,22.6,00.0,0609.7,30.9
2020-02-02T00:47:00Z,00000380,01000600,0000.30,-000.41,0000.29,0000.51,0000.54,-000.26,-000.22,-000.11,-000.17,22.6,00.0,0609.7,30.9
2020-02-02T00:48:00Z,00000380,01000600,0000.37,-000.11,-000.27,0000.50,-000.20,-000.06,-000.00,-000.10,0000.05,22.5,00.0,0609.7,30.8
2020-02-02T00:49:00Z,00000380,01000600,-000.66,-000.03,0000.71,0000.25,-000.19,0000.38,0000.07,0000.00,-000.01,22.5,00.0,0609.7,30.8
2020-02-02T00:50:00Z,00000380,01000600,0000.98,-000.30,0000.14,0000.36,0000.51,0000.07,0000.08,0000.16,0000.21,22.6,00.0,0609.7,30.8
2020-02-02T00:51:00Z,00000380,01000600,0000.17,0000.03,0000.07,-000.05,0000.24,0000.04,-000.02,-000.01,-000.10,22.6,00.0,0609.7,30.8
2020-02-02T00:52:00Z,00000380,01000600,0000.58,-000.21,0000.09,-000.17,0000.31,-000.23,-000.04,-000.03,-000.08,22.6,00.0,0609.7,30.8
2020-02-02T00:53:00Z,00000380,01000600,0000.23,-000.16,-000.08,0000.73,-000.23,-000.23,-000.04,0000.30,0000.09,22.6,00.0,0609.7,30.8
2020-02-02T00:54:00Z,00000380,01000600,-000.61,-000.28,-000.09,-000.69,0000.13,-000.03,0000.16,-000.05,0000.00,22.6,00.0,0609.7,30.9
2020-02-02T00:55:00Z,00000380,01000600,0000.22,-000.65,0000.33,-000.05,0000.37,0000.16,0000.03,0000.08,0000.14,22.6,00.0,0609.7,30.9
2020-02-02T00:56:00Z,00000380,01000600,0000.44,0000.19,0000.10,0000.07,0000.11,0000.06,-000.06,-000.07,-000.19,22.6,00.0,0609.6,30.9
2020-02-02T00:57:00Z,00000380,41000600,,,,,,,,,,22.6,00.0,0609.7,30.9
2020-02-02T00:58:00Z,00000380,61000600,,,,,,,,,,22.7,00.0,0608.7,30.9
2020-02-02T00:59:00Z,00000380,21000600,,,,,,,,,,22.8,00.0,0608.7,30.9
2020-02-02T01:00:00Z,00000380,21000600,,,,,,,,,,22.8,00.0,0608.7,30.9
2020-02-02T01:01:00Z,00000380,21000600,,,,,,,,,,22.8,00.0,0608.7,30.9
2020-02-02T01:02:00Z,00000380,21000600,,,,,,,,,,22.8,00.0,0608.6,30.9
2020-02-02T01:03:00Z,00000380,61000600,,,,,,,,,,22.8,00.0,0608.6,30.8
2020-02-02T01:04:00Z,00000380,41000600,0000.85,-000.07,0000.45,-000.55,0000.38,0000.40,0000.08,0000.10,0000.03,22.6,00.0,0609.5,30.8
2020-02-02T01:05:00Z,00000380,01000600,0000.76,0000.98,-000.03,0000.46,0000.25,0000.15,0000.06,0000.16,0000.24,22.6,00.0,0609.6,30.8
2020-02-02T01:06:00Z,00000380,01000600,-001.15,0000.18,0000.20,0000.36,-000.04,0000.35,-000.19,-000.48,-000.31,22.6,00.0,0609.6,30.8
2020-02-02T01:07:00Z,00000380,01000600,-000.53,0000.38,-000.03,-000.66,0000.09,0000.38,0000.14,0000.37,0000.04,22.6,00.0,0609.6,30.8
2020-02-02T01:08:00Z,00000380,01000600,-001.58,0000.42,0000.32,0000.34,0000.03,-000.13,0000.05,0000.07,0000.10,22.6,00.0,0609.6,30.8
2020-02-02T01:09:00Z,00000380,01000600,0000.04,0000.38,0000.03,0000.60,0000.07,0000.46,-000.07,-000.11,0000.01,22.6,00.0,0609.6,30.9
2020-02-02T01:10:00Z,00000380,01000600,-000.23,-000.01,0000.32,0000.99,0000.34,0000.20,0000.12,-000.08,-000.08,22.6,00.0,0609.6,30.9
2020-02-02T01:11:00Z,00000380,01000600,0001.51,0000.02,0000.26,-000.10,-000.08,-000.08,-000.04,0000.10,0000.01,22.6,00.0,0609.6,30.9
2020-02-02T01:12:00Z,00000380,01000600,0000.53,0000.39,0000.11,0000.33,0000.45,-000.24,0000.04,-000.04,0000.11,22.6,00.0,0609.6,30.9
2020-02-02T01:13:00Z,00000380,01000600,-000.31,-000.38,-000.06,-000.38,0000.06,0000.12,-000.06,0000.06,0000.06,22.5,00.0,0609.6,30.9
2020-02-02T01:14:00Z,00000380,01000600,-000.44,0000.18,-000.12,-000.12,-000.03,0000.44,0000.05,-000.07,-000.07,22.5,00.0,0609.7,30.9
2020-02-02T01:15:00Z,00000380,01000600,0001.11,0000.48,0000.25,-000.10,0000.38,0000.43,-000.13,0000.02,-000.19,22.5,00.0,0609.7,30.9
2020-02-02T01:16:00Z,00000380,01000600,-001.50,-000.37,0000.29,0000.51,-000.12,0000.15,0000.08,0000.12,0000.17,22.5,00.0,0609.7,30.9
2020-02-02T01:17:00Z,00000380,01000600,0000.14,0000.56,0000.26,0000.01,0000.30,0000.27,-000.03,-000.24,-000.11,22.5,00.0,0609.6,30.9
2020-02-02T01:18:00Z,00000380,01000600,-001.32,-000.75,-000.53,0000.71,0000.10,0000.05,-000.10,-000.12,0000.04,22.5,00.0,0609.6,30.8
2020-02-02T01:19:00Z,00000380,01000600,0000.09,-000.52,0000.05,-000.38,0000.03,0000.22,0000.12,0000.11,0000.03,22.5,00.0,0609.5,30.8
2020-02-02T01:20:00Z,00000380,01000600,0000.27,0000.30,-000.08,-000.43,-000.01,0000.13,0000.15,0000.11,-000.02,22.5,00.0,0609.4,30.8
2020-02-02T01:21:00Z,00000380,01000600,0000.73,-000.02,0000.11,0000.59,0000.07,0000.07,0000.25,0000.30,0000.21,22.5,00.0,0609.4,30.8
2020-02-02T01:22:00Z,00000380,01000600,0000.23,-000.09,-000.05,0000.59,0000.06,0000.12,-000.11,-000.21,-000.12,22.5,00.0,0609.4,30.8
2020-02-02T01:23:00Z,00000380,01000600,0000.61,0000.27,0000.11,0000.65,0000.15,0000.10,0000.20,0000.36,0000.12,22.5,00.0,0609.4,30.8
2020-02-02T01:24:00Z,00000380,01000600,0000.74,0000.32,-000.26,0000.23,0000.33,0000.31,-000.03,0000.02,0000.05,22.5,00.0,0609.5,30.8
2020-02-02T01:25:00Z,00000380,01000600,-000.95,0000.17,-000.07,-000.01,0000.25,0000.33,-000.03,-000.06,0000.04,22.5,00.0,0609.5,30.9
2020-02-02T01:26:00Z,00000380,01000600,-000.19,-000.44,0000.16,-000.13,-000.09,-000.06,0000.16,0000.02,0000.01,22.5,00.0,0609.5,30.9
2020-02-02T01:27:00Z,00000380,01000600,-000.60,0000.29,-000.09,0000.34,0000.05,0000.04,-000.08,-000.06,-000.15,22.5,00.0,0609.5,30.9
2020-02-02T01:28:00Z,00000380,01000600,0000.96,-000.21,0000.31,0000.12,-000.00,0000.42,-000.11,0000.03,0000.01,22.5,00.0,0609.6,30.9
2020-02-02T01:29:00Z,00000380,01000600,0000.70,0000.35,-000.06,-000.56,0000.20,0000.14,-000.02,-000.04,0000.06,22.5,00.0,0609.6,30.9
2020-02-02T01:30:00Z,00000380,01000600,0000.34,-000.34,0000.62,-000.01,0000.23,0000.11,-000.14,-000.02,0000.03,22.5,00.0,0609.6,30.9
2020-02-02T01:31:00Z,00000380,01000600,0000.52,0000.13,-000.25,0000.61,0000.27,0000.10,0000.12,0000.04,-000.05,22.5,00.0,0609.6,30.9
2020-02-02T01:32:00Z,00000380,01000600,0000.53,-000.47,-000.25,-000.38,0000.06,0000.05,-000.22,-000.28,-000.19,22.5,00.0,0609.6,30.9
2020-02-02T01:33:00Z,00000380,01000600,-000.79,-000.48,0000.03,0000.34,-000.14,-000.01,0000.08,-000.02,0000.16,22.4,00.0,0609.6,30.8
2020-02-02T01:34:00Z,00000380,01000600,-000.21,0000.05,0000.03,-000.31,0000.41,0000.41,0000.00,0000.08,-000.14,22.4,00.0,0609.6,30.8
2020-02-02T01:35:00Z,00000380,01000600,0000.28,0000.29,0000.25,0000.45,0000.12,-000.08,0000.17,0000.11,0000.27,22.5,00.0,0609.6,30.8
2020-02-02T01:36:00Z,00000380,01000600,-000.36,-000.06,-000.14,0000.16,0000.42,-000.02,-000.19,0000.01,-000.10,22.5,00.0,0609.6,30.8
2020-02-02T01:37:00Z,00000380,01000600,-000.14,-000.24,0000.13,0000.19,-000.28,0000.09,0000.06,-000.05,0000.10,22.5,00.0,0609.6,30.8
2020-02-02T01:38:00Z,00000380,01000600,0000.19,0000.31,0000.20,0000.03,0000.21,0000.32,0000.11,0000.21,-000.16,22.5,00.0,0609.6,30.9
2020-02-02T01:39:00Z,00000380,01000600,0000.79,-000.05,0000.05,-000.12,0000.05,0000.09,-000.11,0000.05,0000.21,22.5,00.0,0609.6,30.9
2020-02-02T01:40:00Z,00000380,01000600,0000.38,0000.12,0000.41,0000.42,-000.04,0000.43,0000.27,-000.13,-000.08,22.5,00.0,0609.6,30.9
2020-02-02T01:41:00Z,00000380,01000600,-000.06,-000.07,0000.07,0000.20,0000.16,0000.16,-000.28,0000.07,0000.03,22.5,00.0,0609.5,30.9
2020-02-02T01:42:00Z,00000380,01000600,-000.22,-000.72,-000.21,-000.55,-000.01,-000.01,0000.04,0000.02,-000.08,22.5,00.0,0609.5,30.9
2020-02-02T01:43:00Z,00000380,01000600,-000.54,-000.07,0000.30,0000.41,-000.19,0000.30,0000.10,0000.04,0000.20,22.5,00.0,0609.6,30.9
2020-02-02T01:44:00Z,00000380,01000600,-001.07,0000.25,-000.03,0000.35,0000.38,0000.12,0000.09,0000.14,-000.10,22.5,00.0,0609.6,30.9
2020-02-02T01:45:00Z,00000380,01000600,-000.47,-000.29,0000.09,0000.45,0000.29,0000.22,-000.04,-000.19,0000.01,22.5,00.0,0609.6,30.9
2020-02-02T01:46:00Z,00000380,01000600,-000.04,-000.17,0000.26,0000.04,0000.10,-000.05,-000.00,0000.05,0000.02,22.5,00.0,0609.6,30.9
2020-02-02T01:47:00Z,00000380,01000600,-000.89,-000.28,0000.55,0000.31,0000.31,0000.57,-000.18,-000.25,-000.32,22.5,00.0,0609.7,30.9
2020-02-02T01:48:00Z,00000380,01000600,-000.12,-000.08,0000.37,-000.87,-000.08,0000.17,0000.06,-000.02,0000.21,22.5,00.0,0609.7,30.9
2020-02-02T01:49:00Z,00000380,01000600,0001.51,0000.09,0000.09,0000.37,-000.18,0000.03,0000.02,0000.09,0000.01,22.5,00.0,0609.7,30.8
2020-02-02T01:50:00Z,00000380,01000600,0000.19,0000.19,0000.27,-000.02,-000.07,0000.42,0000.03,0000.19,0000.09,22.5,00.0,0609.7,30.9
2020-02-02T01:51:00Z,00000380,01000600,-001.41,-000.18,0000.37,0000.43,0000.10,-000.05,-000.08,-000.19,-000.21,22.5,00.0,0609.7,30.9
2020-02-02T01:52:00Z,00000380,01000600,0000.23,0000.35,0000.39,-000.00,0000.08,0000.46,0000.12,0000.24,0000.20,22.5,00.0,0609.7,30.9
2020-02-02T01:53:00Z,00000380,01000600,0000.66,-000.28,0000.01,0000.90,0000.10,0000.40,0000.11,-000.09,-000.10,22.5,00.0,0609.7,30.9
2020-02-02T01:54:00Z,00000380,01000600,-000.07,0000.01,0000.28,0000.51,0000.53,0000.31,-000.24,-000.04,0000.01,22.5,00.0,0609.7,30.9
2020-02-02T01:55:00Z,00000380,01000600,0000.10,-000.07,0000.51,0000.58,0000.49,0000.33,0000.12,0000.01,-000.01,22.5,00.0,0609.7,30.9
2020-02-02T01:56:00Z,00000380,01000600,-000.04,-000.05,-000.11,0000.37,0000.25,0000.09,0000.02,0000.10,0000.10,22.5,00.0,0609.6,30.9
2020-02-02T01:57:00Z,00000380,41000600,,,,,,,,,,22.6,00.0,0609.6,30.9
2020-02-02T01:58:00Z,00000380,61000600,,,,,,,,,,22.7,00.0,0608.6,30.9
2020-02-02T01:59:00Z,00000380,21000600,,,,,,,,,,22.8,00.0,0608.6,30.9
2020-02-02T02:00:00Z,00000380,21000600,,,,,,,,,,22.8,00.0,0608.6,30.9
2020-02-02T02:01:00Z,00000380,21000600,,,,,,,,,,22.8,00.0,0608.6,30.9
2020-02-02T02:02:00Z,00000380,21000600,,,,,,,,,,22.8,00.0,0608.6,30.9
2020-02-02T02:03:00Z,00000380,61000600,,,,,,,,,,22.8,00.0,0608.6,30.9
2020-02-02T02:04:00Z,00000380,41000600,0000.90,0000.13,0000.19,0000.18,0000.16,0000.25,0000.09,0000.24,0000.14,22.6,00.0,0609.6,30.8
2020-02-02T02:05:00Z,00000380,01000600,0000.34,-000.05,0000.35,0000.33,-000.30,0000.03,-000.12,0000.04,-000.07,22.6,00.0,0609.7,30.9
2020-02-02T02:06:00Z,00000380,01000600,-000.13,0000.57,0000.02,-000.04,0000.44,0000.24,0000.08,-000.26,0000.05,22.6,00.0,0609.7,30.9
2020-02-02T02:07:00Z,00000380,01000600,-000.47,-000.28,-000.01,-000.10,-000.39,0000.32,0000.03,0000.29,-000.02,22.6,00.0,0609.7,30.9
2020-02-02T02:08:00Z,00000380,01000600,-000.29,-000.08,0000.29,-000.04,0000.10,0000.43,0000.02,-000.11,-000.07,22.6,00.0,0609.8,30.9
2020-02-02T02:09:00Z,00000380,01000600,0000.63,0000.11,-000.19,-000.11,0000.71,0000.33,0000.11,0000.25,0000.12,22.6,00.0,0609.8,30.9
2020-02-02T02:10:00Z,00000380,01000600,-000.33,0000.06,-000.24,0000.67,0000.15,0000.20,-000.25,-000.24,-000.08,22.6,00.0,0609.8,30.9
2020-02-02T02:11:00Z,00000380,01000600,-000.02,-000.03,0000.11,0000.24,-000.15,0000.03,0000.11,-000.01,-000.13,22.6,00.0,0609.8,30.9
2020-02-02T02:12:00Z,00000380,01000600,-000.84,0000.04,-000.31,-000.09,0000.24,-000.28,0000.05,0000.09,0000.18,22.6,00.0,0609.8,30.9
2020-02-02T02:13:00Z,00000380,01000600,0000.05,-000.03,0000.19,-000.35,-000.13,0000.16,-000.05,-000.06,-000.11,22.6,00.0,0609.8,30.9
2020-02-02T02:14:00Z,00000380,01000600,0000.91,-000.32,0000.44,0000.21,0000.53,0000.48,0000.02,0000.01,0000.06,22.6,00.0,0609.8,30.9
2020-02-02T02:15:00Z,00000380,01000600,0000.34,-000.47,-000.15,0000.27,-000.24,0000.27,0000.03,0000.08,-000.03,22.6,00.0,0609.8,30.9
2020-02-02T02:16:00Z,00000380,01000600,-000.24,-000.25,-000.33,-000.31,-000.37,0000.31,0000.07,0000.22,0000.04,22.6,00.0,0609.8,30.9
2020-02-02T02:17:00Z,00000380,01000600,0000.50,-000.18,0000.07,-000.40,0000.19,-000.07,-000.14,-000.41,0000.03,22.6,00.0,0609.8,30.9
2020-02-02T02:18:00Z,00000380,01000600,-000.78,0000.75,-000.02,-000.08,-000.22,-000.08,0000.06,0000.08,-000.06,22.6,00.0,0609.8,30.9
2020-02-02T02:19:00Z,00000380,01000600,0000.20,-000.32,-000.31,-000.49,-000.23,-000.18,0000.05,0000.22,0000.11,22.6,00.0,0609.8,30.9
2020-02-02T02:20:00Z,00000380,01000600,0000.60,0000.10,-000.06,-000.41,-000.20,-000.02,0000.08,-000.07,0000.06,22.6,00.0,0609.8,30.9
2020-02-02T02:21:00Z,00000380,01000600,0000.30,-000.00,-000.08,0000.18,0000.35,0000.38,-000.08,-000.18,-000.07,22.6,00.0,0609.7,30.9
2020-02-02T02:22:00Z,00000380,01000600,-000.22,-000.22,0000.90,0000.58,0000.32,0000.20,0000.13,0000.38,0000.06,22.6,00.0,0609.7,30.9
2020-02-02T02:23:00Z,00000380,01000600,0000.41,-000.26,-000.04,0000.04,0000.03,0000.29,0000.06,0000.04,0000.16,22.6,00.0,0609.7,30.9
2020-02-02T02:24:00Z,00000380,01000600,-000.28,-000.23,0000.07,0000.28,0000.11,0000.25,-000.01,-000.02,0000.00,22.6,00.0,0609.7,30.9
2020-02-02T02:25:00Z,00000380,01000600,-000.12,0000.13,0000.06,-000.58,0000.05,0000.09,0000.05,-000.23,-000.13,22.6,00.0,0609.7,30.9
2020-02-02T02:26:00Z,00000380,01000600,-000.77,-000.14,-000.41,0000.22,-000.27,0000.07,0000.02,0000.18,-000.09,22.6,00.0,0609.7,30.9
2020-02-02T02:27:00Z,00000380,01000600,-001.20,0000.10,0000.08,-000.17,-000.40,0000.55,-000.05,0000.10,0000.09,22.6,00.0,0609.8,30.9
2020-02-02T02:28:00Z,00000380,01000600,-001.24,0000.31,-000.33,0000.08,0000.14,-000.24,0000.06,0000.14,-000.05,22.6,00.0,0609.8,30.9
2020-02-02T02:29:00Z,00000380,01000600,0000.63,-000.32,0000.54,0000.02,-000.22,0000.21,-000.06,-000.29,-000.06,22.5,00.0,0609.9,30.9
2020-02-02T02:30:00Z,00000380,01000600,0001.02,0000.00,0000.15,-000.26,0000.24,0000.02,-000.04,0000.03,0000.20,22.5,00.0,0609.9,30.9
2020-02-02T02:31:00Z,00000380,01000600,0000.25,0000.06,-000.21,0000.01,0000.12,0000.39,-000.04,0000.02,-000.02,22.5,00.0,0609.9,30.9
2020-02-02T02:32:00Z,00000380,01000600,-000.77,0000.36,0000.07,0000.62,0000.63,-000.02,0000.01,-000.25,-000.06,22.5,00.0,0609.9,30.9
2020-02-02T02:33:00Z,00000380,01000600,0000.59,0000.80,0000.07,-000.03,0000.22,0000.15,-000.03,-000.16,-000.11,22.5,00.0,0609.9,30.9
2020-02-02T02:34:00Z,00000380,01000600,0000.65,-000.04,0000.01,0000.29,0000.61,0000.10,0000.01,0000.00,0000.06,22.5,00.0,0610.0,30.8
2020-02-02T02:35:00Z,00000380,01000600,0000.14,0000.00,0000.06,0001.64,-000.26,0000.51,0000.16,0000.26,0000.08,22.5,00.0,0610.0,30.8
2020-02-02T02:36:00Z,00000380,01000600,0001.05,-000.51,-000.23,0000.12,0000.15,0000.42,-000.11,0000.04,-000.05,22.5,00.0,0610.0,30.8
2020-02-02T02:37:00Z,00000380,01000600,-000.03,0000.18,0000.06,-000.08,-000.46,-000.06,-000.05,-000.12,-000.05,22.6,00.0,0610.1,30.9
2020-02-02T02:38:00Z,00000380,01000600,-000.49,-000.26,-000.14,0000.27,-000.07,0000.03,0000.05,0000.16,0000.11,22.6,00.0,0610.1,30.8
2020-02-02T02:39:00Z,00000380,01000600,-000.01,0000.12,-000.21,-000.41,-000.15,-000.10,0000.05,0000.10,-000.15,22.6,00.0,0610.1,30.9
2020-02-02T02:40:00Z,00000380,01000600,0000.72,-000.10,-000.34,0000.71,0000.20,0000.00,-000.11,-000.16,0000.10,22.6,00.0,0610.0,30.9
2020-02-02T02:41:00Z,00000380,01000600,0001.19,-000.12,0000.14,0000.06,0000.46,-000.11,0000.05,-000.01,-000.02,22.6,00.0,0609.9,30.9
2020-02-02T02:42:00Z,00000380,01000600,0000.46,0000.54,-000.25,0000.20,0000.11,0000.03,-000.06,0000.00,0000.08,22.6,00.0,0609.9,30.9
2020-02-02T02:43:00Z,00000380,01000600,-000.55,-000.34,0000.68,-000.32,0000.32,0000.52,0000.08,0000.14,-000.04,22.6,00.0,0609.9,30.9
2020-02-02T02:44:00Z,00000380,01000600,0000.17,0000.11,0000.65,0000.14,-000.16,0000.33,-000.00,-000.05,-000.01,22.6,00.0,0609.9,30.9
2020-02-02T02:45:00Z,00000380,01000600,0000.32,-000.33,0000.05,0000.26,0000.16,-000.03,0000.07,0000.04,-000.00,22.6,00.0,0609.9,30.9
2020-02-02T02:46:00Z,00000380,01000600,0001.07,0000.11,-000.08,-000.72,-000.09,0000.06,-000.05,0000.07,0000.07,22.5,00.0,0610.0,30.9
2020-02-02T02:47:00Z,00000380,01000600,0000.80,0000.24,0000.11,0000.43,0000.03,-000.13,-000.03,-000.32,-000.15,22.5,00.0,0610.0,30.9
2020-02-02T02:48:00Z,00000380,01000600,-000.08,0000.09,0001.07,-000.60,0000.38,0000.28,0000.06,0000.08,0000.16,22.5,00.0,0610.0,30.9
2020-02-02T02:49:00Z,00000380,01000600,0000.06,-000.01,-000.06,0000.33,0000.26,0000.03,-000.03,0000.14,0000.07,22.5,00.0,0610.0,30.8
2020-02-02T02:50:00Z,00000380,01000600,0000.45,0000.43,0000.03,-000.61,-000.07,-000.03,0000.12,0000.14,-000.05,22.6,00.0,0610.0,30.9
2020-02-02T02:51:00Z,00000380,01000600,0000.15,0000.11,0000.06,-000.63,-000.17,-000.00,-000.09,-000.31,-000.18,22.6,00.0,0610.0,30.9
2020-02-02T02:52:00Z,00000380,01000600,-000.09,-000.36,0000.32,0000.08,-000.33,0000.34,0000.06,0000.39,0000.21,22.6,00.0,0610.0,30.9
2020-02-02T02:53:00Z,00000380,01000600,0000.13,0000.05,0000.33,0000.31,0000.36,0000.20,0000.00,-000.08,-000.08,22.6,00.0,0610.0,30.9
2020-02-02T02:54:00Z,00000380,01000600,0000.32,-000.37,-000.34,-000.32,-000.00,-000.35,-000.02,0000.17,0000.06,22.6,00.0,0610.0,30.9
2020-02-02T02:55:00Z,00000380,01000600,-000.79,0000.90,0000.04,0000.50,-000.08,-000.09,0000.13,-000.20,0000.01,22.6,00.0,0609.9,30.9
2020-02-02T02:56:00Z,00000380,01000600,0001.04,0000.38,-000.05,0000.30,-000.09,-000.18,-000.07,0000.02,0000.20,22.6,00.0,0609.9,30.9
2020-02-02T02:57:00Z,00000380,41000600,,,,,,,,,,22.6,00.0,0609.9,30.9
2020-02-02T02:58:00Z,00000380,61000600,,,,,,,,,,22.7,00.0,0609.0,30.9
2020-02-02T02:59:00Z,00000380,21000600,,,,,,,,,,22.8,00.0,0609.0,30.9
2020-02-02T03:00:00Z,00000380,21000600,,,,,,,,,,22.8,00.0,0609.0,30.9
2020-02-02T03:01:00Z,00000380,21000600,,,,,,,,,,22.9,00.0,0608.9,30.9
2020-02-02T03:02:00Z,00000380,21000600,,,,,,,,,,22.9,00.0,0608.9,30.9
2020-02-02T03:03:00Z,00000380,61000600,,,,,,,,,,22.9,00.0,0608.9,30.9
2020-02-02T03:04:00Z,00000380,41000600,0000.01,0000.51,-000.15,-000.06,0000.17,0000.05,0000.04,0000.33,0000.11,22.7,00.0,0609.8,30.8
2020-02-02T03:05:00Z,00000380,01000600,-000.92,0000.55,-000.11,0000.55,0000.08,0000.47,-000.10,0000.03,-000.06,22.7,00.0,0609.8,30.9
2020-02-02T03:06:00Z,00000380,01000600,-000.45,0000.37,0000.43,0000.04,0000.06,-000.01,0000.02,-000.47,-000.06,22.6,00.0,0609.8,30.9
2020-02-02T03:07:00Z,00000380,01000600,-000.42,-000.52,-000.04,0000.21,-000.26,0000.04,0000.12,0000.51,0000.08,22.6,00.0,0609.8,30.9
2020-02-02T03:08:00Z,00000380,01000600,0000.14,0000.27,-000.02,0000.87,0000.06,0000.23,0000.12,0000.17,0000.15,22.6,00.0,0609.8,30.9
2020-02-02T03:09:00Z,00000380,01000600,-001.36,-000.13,-000.42,-000.05,-000.18,-000.08,-000.06,-000.13,-000.10,22.6,00.0,0609.8,30.9
2020-02-02T03:10:00Z,00000380,01000600,-000.85,-000.47,0000.18,-000.44,0000.21,-000.22,0000.02,0000.06,0000.03,22.6,00.0,0609.8,30.9